DW4657 Weather Reports


Display with metric or nautical units.
time (UTC)temp
F
wind
direction
speed
MPH
gust
MPH
rain 1hr
in
rain 24hr
in
rain mn
in
humidity
%
barometer
mb
20260905182526 70 345 3.0 9.0 0.00 0.00 0.00 76 1010.6
20260905182026 70 26 3.0 9.0 0.00 0.00 0.00 76 1010.5
20260905181555 71 28 3.0 10.0 0.00 0.00 0.00 75 1010.5
20260905181027 71 23 4.0 10.0 0.00 0.00 0.00 75 1010.5
20260905180524 71 345 4.0 8.0 0.00 0.00 0.00 74 1010.5
20260905180114 71 349 3.0 8.0 0.00 0.00 0.00 75 1010.4
20260905175525 70 39 3.0 8.0 0.00 0.00 0.00 75 1010.3
20260905175024 70 24 3.0 8.0 0.00 0.00 0.00 74 1010.3
20260905174547 71 33 1.0 7.0 0.00 0.00 0.00 75 1010.2
20260905174024 70 37 2.0 12.0 0.00 0.00 0.00 75 1010.2
20260905173525 70 26 4.0 12.0 0.00 0.00 0.00 76 1010.2
20260905173044 70 20 4.0 9.0 0.00 0.00 0.00 76 1010.1
20260905172525 69 25 3.0 8.0 0.00 0.00 0.00 77 1010.2
20260905172024 69 24 3.0 8.0 0.00 0.00 0.00 77 1010.1
20260905171544 69 31 2.0 9.0 0.00 0.00 0.00 78 1010.1
20260905171027 69 37 5.0 9.0 0.00 0.00 0.00 77 1010.1
20260905170522 69 29 2.0 9.0 0.00 0.00 0.00 77 1010.1
20260905170046 69 20 3.0 9.0 0.00 0.00 0.00 76 1010.1
20260905165525 69 39 4.0 8.0 0.00 0.00 0.00 77 1010.1
20260905165026 69 27 2.0 8.0 0.00 0.00 0.00 77 1010.1
20260905164546 69 15 1.0 9.0 0.00 0.00 0.00 78 1010.0
20260905164024 69 37 2.0 9.0 0.00 0.00 0.00 77 1009.9
20260905163524 69 16 2.0 5.0 0.00 0.00 0.00 78 1009.9
20260905163045 69 30 1.0 7.0 0.00 0.00 0.00 79 1010.0
20260905162519 69 23 3.0 7.0 0.00 0.00 0.00 79 1009.9
20260905162019 69 357 3.0 9.0 0.00 0.00 0.00 79 1009.9
20260905161542 69 27 2.0 9.0 0.00 0.00 0.00 79 1010.0
20260905161026 69 34 2.0 7.0 0.00 0.00 0.00 79 1009.9
20260905160524 69 18 2.0 10.0 0.00 0.00 0.00 78 1010.0
20260905160049 69 19 4.0 10.0 0.00 0.00 0.00 77 1009.9
20260905155524 70 27 3.0 7.0 0.00 0.00 0.00 77 1009.9
20260905155025 70 25 3.0 7.0 0.00 0.00 0.00 76 1009.9
20260905154607 70 23 2.0 6.0 0.00 0.00 0.00 76 1009.8
20260905154024 70 19 2.0 13.0 0.00 0.00 0.00 76 1009.8
20260905153526 70 29 6.0 13.0 0.00 0.00 0.00 75 1009.8
20260905153044 71 26 4.0 7.0 0.00 0.00 0.00 75 1009.7
20260905152519 71 27 3.0 9.0 0.00 0.00 0.00 75 1009.6
20260905152020 70 9 3.0 10.0 0.00 0.00 0.00 76 1009.6
20260905151544 70 51 5.0 10.0 0.00 0.00 0.00 75 1009.6
20260905151024 70 25 2.0 8.0 0.00 0.00 0.00 76 1009.6
20260905150524 70 18 1.0 8.0 0.00 0.00 0.00 76 1009.6
20260905150045 71 23 3.0 8.0 0.00 0.00 0.00 75 1009.5
20260905145525 71 37 3.0 8.0 0.00 0.00 0.00 75 1009.5
20260905145024 71 1 2.0 10.0 0.00 0.00 0.00 75 1009.4
20260905144546 70 39 5.0 10.0 0.00 0.00 0.00 75 1009.4
20260905144023 70 33 2.0 8.0 0.00 0.00 0.00 77 1009.4
20260905143524 69 29 4.0 10.0 0.00 0.00 0.00 77 1009.3
20260905143044 70 12 3.0 10.0 0.00 0.00 0.00 76 1009.4
20260905142519 71 30 2.0 8.0 0.00 0.00 0.00 76 1009.3
20260905142020 70 42 4.0 10.0 0.00 0.00 0.00 76 1009.2
20260905141542 70 36 3.0 10.0 0.00 0.00 0.00 76 1009.3
20260905141024 70 8 3.0 8.0 0.00 0.00 0.00 76 1009.2
20260905140524 70 13 1.0 9.0 0.00 0.00 0.00 76 1009.3
20260905140047 70 23 3.0 9.0 0.00 0.00 0.00 76 1009.3
20260905135525 70 41 4.0 8.0 0.00 0.00 0.00 77 1009.5
20260905135028 70 32 4.0 8.0 0.00 0.00 0.00 77 1009.5
20260905134543 70 32 2.0 7.0 0.00 0.00 0.00 78 1009.6
20260905134025 70 5 3.0 7.0 0.00 0.00 0.00 78 1009.6
20260905133519 70 354 2.0 6.0 0.00 0.00 0.00 77 1009.6
20260905133047 70 7 3.0 6.0 0.00 0.00 0.00 77 1009.4
20260905132525 70 37 2.0 8.0 0.00 0.00 0.00 77 1009.4
20260905132027 70 39 2.0 8.0 0.00 0.00 0.00 77 1009.3
20260905131545 70 7 1.0 7.0 0.00 0.00 0.00 77 1009.1
20260905131024 70 37 3.0 7.0 0.00 0.00 0.00 77 1009.2
20260905130526 70 41 3.0 7.0 0.00 0.00 0.00 77 1009.1
20260905130048 69 26 3.0 7.0 0.00 0.00 0.00 79 1009.0
20260905125518 69 37 2.0 6.0 0.00 0.00 0.00 79 1009.0
20260905125019 69 36 4.0 6.0 0.00 0.00 0.00 78 1009.1
20260905124542 69 28 2.0 7.0 0.00 0.00 0.00 80 1009.0
20260905124030 69 19 3.0 10.0 0.00 0.00 0.00 79 1009.0
20260905123524 68 4 5.0 10.0 0.00 0.00 0.00 79 1008.9
20260905123049 68 27 2.0 5.0 0.00 0.00 0.00 81 1008.9
20260905122525 68 31 2.0 5.0 0.00 0.00 0.00 81 1008.8
20260905122025 67 20 2.0 4.0 0.00 0.00 0.00 82 1008.7
20260905121545 67 0 1.0 6.0 0.00 0.00 0.00 83 1008.7
20260905121024 66 0 1.0 6.0 0.00 0.00 0.00 84 1008.8
20260905120524 66 352 1.0 5.0 0.00 0.00 0.00 85 1008.7
20260905120047 65 31 2.0 5.0 0.00 0.00 0.00 86 1008.7
20260905115523 64 0 1.0 4.0 0.00 0.00 0.00 87 1008.7
20260905115025 63 0 1.0 4.0 0.00 0.00 0.00 89 1008.6
20260905114547 63 43 0.0 4.0 0.00 0.00 0.00 91 1008.7
20260905114024 62 0 0.0 1.0 0.00 0.00 0.00 93 1008.7
20260905113524 61 0 0.0 2.0 0.00 0.00 0.00 94 1008.7
20260905113050 61 0 0.0 2.0 0.00 0.00 0.00 95 1008.7
20260905112524 60 0 0.0 0.0 0.00 0.00 0.00 95 1008.6
20260905112024 60 0 0.0 0.0 0.00 0.00 0.00 95 1008.7
20260905111616 59 0 0.0 0.0 0.00 0.00 0.00 95 1008.5
20260905111022 59 0 0.0 0.0 0.00 0.00 0.00 94 1008.5
20260905110518 59 0 0.0 0.0 0.00 0.00 0.00 94 1008.5
20260905110046 59 0 0.0 0.0 0.00 0.00 0.00 94 1008.3
20260905105525 58 0 0.0 0.0 0.00 0.00 0.00 94 1008.3
20260905105023 58 0 0.0 0.0 0.00 0.00 0.00 94 1008.2
20260905104544 58 0 0.0 0.0 0.00 0.00 0.00 94 1008.2
20260905104024 58 0 0.0 0.0 0.00 0.00 0.00 94 1008.2
20260905103527 58 0 0.0 0.0 0.00 0.00 0.00 94 1008.2
20260905103046 58 0 0.0 0.0 0.00 0.00 0.00 94 1008.2
20260905102524 58 0 0.0 0.0 0.00 0.00 0.00 93 1008.2
20260905102024 58 0 0.0 0.0 0.00 0.00 0.00 93 1008.2
20260905101553 58 0 0.0 0.0 0.00 0.00 0.00 93 1008.1
20260905101019 58 0 0.0 0.0 0.00 0.00 0.00 93 1008.2
20260905100519 58 0 0.0 0.0 0.00 0.00 0.00 93 1008.1
20260905100050 58 0 0.0 0.0 0.00 0.00 0.00 93 1008.2
20260905095524 58 0 0.0 0.0 0.00 0.00 0.00 93 1008.1
20260905095024 58 0 0.0 0.0 0.00 0.00 0.00 93 1008.2
20260905094546 58 0 0.0 0.0 0.00 0.00 0.00 93 1008.1
20260905094023 59 0 0.0 0.0 0.00 0.00 0.00 93 1008.0
20260905093524 59 0 0.0 0.0 0.00 0.00 0.00 93 1008.1
20260905093044 59 0 0.0 0.0 0.00 0.00 0.00 93 1008.1
20260905092522 59 0 0.0 0.0 0.00 0.00 0.00 92 1008.0
20260905092020 59 0 0.0 0.0 0.00 0.00 0.00 92 1008.0
20260905091541 59 0 0.0 0.0 0.00 0.00 0.00 92 1007.9
20260905091022 59 0 0.0 0.0 0.00 0.00 0.00 92 1008.0
20260905090525 59 0 0.0 0.0 0.00 0.00 0.00 92 1008.0
20260905090045 59 0 0.0 0.0 0.00 0.00 0.00 92 1008.0
20260905085527 59 0 0.0 0.0 0.00 0.00 0.00 92 1007.9
20260905085026 59 0 0.0 0.0 0.00 0.00 0.00 92 1007.9
20260905084550 59 0 0.0 0.0 0.00 0.00 0.00 92 1007.9
20260905084114 60 0 0.0 0.0 0.00 0.00 0.00 92 1008.0
20260905083519 60 0 0.0 0.0 0.00 0.00 0.00 92 1008.0
20260905083042 60 0 0.0 0.0 0.00 0.00 0.00 92 1008.0
20260905082524 60 0 0.0 0.0 0.00 0.00 0.00 92 1007.9
20260905082022 60 0 0.0 0.0 0.00 0.00 0.00 92 1008.0
20260905081541 60 0 0.0 0.0 0.00 0.00 0.00 92 1007.9
20260905081024 60 0 0.0 0.0 0.00 0.00 0.00 92 1008.0
20260905080522 60 0 0.0 0.0 0.00 0.00 0.00 91 1008.0
20260905080055 60 0 0.0 0.0 0.00 0.00 0.00 91 1008.1
20260905075523 60 0 0.0 0.0 0.00 0.00 0.00 91 1008.0
20260905075023 60 0 0.0 0.0 0.00 0.00 0.00 91 1008.0
20260905074547 60 0 0.0 0.0 0.00 0.00 0.00 92 1008.0
20260905074021 60 0 0.0 0.0 0.00 0.00 0.00 91 1007.9
20260905073521 60 0 0.0 0.0 0.00 0.00 0.00 91 1008.0
20260905073047 60 0 0.0 0.0 0.00 0.00 0.00 91 1008.1
20260905072524 61 0 0.0 0.0 0.00 0.00 0.00 91 1008.0
20260905072027 61 0 0.0 0.0 0.00 0.00 0.00 91 1008.1
20260905071546 61 0 0.0 0.0 0.00 0.00 0.00 91 1008.1
20260905071026 61 0 0.0 0.0 0.00 0.00 0.00 91 1008.0
20260905070524 61 0 0.0 0.0 0.00 0.00 0.00 91 1008.1
20260905070045 61 0 0.0 0.0 0.00 0.00 0.00 91 1008.1
20260905065525 61 0 0.0 0.0 0.00 0.00 0.00 91 1008.2
20260905065018 61 0 0.0 0.0 0.00 0.00 0.00 91 1008.3
20260905064543 61 0 0.0 0.0 0.00 0.00 0.00 91 1008.3
20260905064020 61 0 0.0 0.0 0.00 0.00 0.00 91 1008.6
20260905063520 61 0 0.0 0.0 0.00 0.00 0.00 91 1008.6
20260905063042 61 0 0.0 0.0 0.00 0.00 0.00 91 1008.5
20260905062528 61 0 0.0 0.0 0.00 0.00 0.00 91 1008.5
20260905062024 61 0 0.0 0.0 0.00 0.00 0.00 90 1008.6
20260905061541 61 0 0.0 0.0 0.00 0.00 0.00 90 1008.6
20260905061023 61 0 0.0 0.0 0.00 0.00 0.00 90 1008.6
20260905060524 61 0 0.0 0.0 0.00 0.00 0.00 90 1008.6
20260905060045 62 0 0.0 0.0 0.00 0.00 0.00 90 1008.5
20260905055523 62 0 0.0 0.0 0.00 0.00 0.00 90 1008.5
20260905055023 62 0 0.0 0.0 0.00 0.00 0.00 90 1008.7
20260905054543 62 0 0.0 0.0 0.00 0.00 0.00 90 1008.6
20260905054019 62 0 0.0 0.0 0.00 0.00 0.00 90 1008.7
20260905053521 62 0 0.0 0.0 0.00 0.00 0.00 90 1008.6
20260905053044 62 0 0.0 0.0 0.00 0.00 0.00 90 1008.6
20260905052528 62 0 0.0 0.0 0.00 0.00 0.00 90 1008.6
20260905052027 62 0 0.0 1.0 0.00 0.00 0.00 90 1008.6
20260905051550 62 0 0.0 1.0 0.00 0.00 0.00 89 1008.7
20260905051023 62 0 0.0 0.0 0.00 0.00 0.00 89 1008.6
20260905050524 63 0 0.0 0.0 0.00 0.00 0.00 89 1008.6
20260905050045 63 0 0.0 0.0 0.00 0.00 0.00 90 1008.6
20260905045523 63 0 0.0 0.0 0.00 0.00 0.00 90 1008.5
20260905045027 63 0 0.0 0.0 0.00 0.00 0.00 90 1008.6
20260905044545 62 0 0.0 0.0 0.00 0.00 0.00 90 1008.5
20260905044021 62 0 0.0 0.0 0.00 0.00 0.00 90 1008.6
20260905043518 62 0 0.0 0.0 0.00 0.00 0.00 90 1008.6
20260905043053 62 0 0.0 0.0 0.00 0.00 0.00 90 1008.6
20260905042523 62 0 0.0 0.0 0.00 0.00 0.00 90 1008.7
20260905042027 62 0 0.0 0.0 0.00 0.00 0.00 90 1008.7
20260905041545 63 0 0.0 0.0 0.00 0.00 0.00 90 1008.7
20260905041023 63 0 0.0 0.0 0.00 0.00 0.00 90 1008.6
20260905040523 63 0 0.0 0.0 0.00 0.00 0.00 90 1008.6
20260905040046 63 0 0.0 0.0 0.00 0.00 0.00 90 1008.6
20260905035523 63 0 0.0 0.0 0.00 0.00 0.00 90 1008.6
20260905035027 63 0 0.0 0.0 0.00 0.00 0.00 90 1008.6
20260905034554 63 0 0.0 0.0 0.00 0.00 0.00 90 1008.6
20260905034023 63 0 0.0 0.0 0.00 0.00 0.00 90 1008.5
20260905033526 63 0 0.0 0.0 0.00 0.00 0.00 90 1008.5
20260905033109 63 0 0.0 0.0 0.00 0.00 0.00 90 1008.4
20260905032523 63 0 0.0 0.0 0.00 0.00 0.00 90 1008.6
20260905032027 64 0 0.0 0.0 0.00 0.00 0.00 90 1008.6
20260905031554 64 0 0.0 0.0 0.00 0.00 0.00 90 1008.6
20260905031025 64 0 0.0 0.0 0.00 0.00 0.00 91 1008.6
20260905030525 64 0 0.0 0.0 0.00 0.00 0.00 91 1008.6
20260905030055 64 0 0.0 0.0 0.00 0.00 0.00 90 1008.5
20260905025523 64 0 0.0 0.0 0.00 0.00 0.00 91 1008.5
20260905025023 64 0 0.0 0.0 0.00 0.00 0.00 91 1008.5
20260905024539 64 0 0.0 0.0 0.00 0.00 0.00 91 1008.5
20260905024023 64 0 0.0 0.0 0.00 0.00 0.00 91 1008.6
20260905023524 64 0 0.0 0.0 0.00 0.00 0.00 91 1008.5
20260905023055 65 0 0.0 0.0 0.00 0.00 0.00 91 1008.5
20260905022524 65 0 0.0 0.0 0.00 0.00 0.00 90 1008.5
20260905022029 65 0 0.0 0.0 0.00 0.00 0.00 90 1008.5
20260905021547 65 0 0.0 0.0 0.00 0.00 0.00 90 1008.5
20260905021024 65 0 0.0 0.0 0.00 0.00 0.00 90 1008.6
20260905020527 65 0 0.0 0.0 0.00 0.00 0.00 90 1008.6
20260905020043 65 0 0.0 0.0 0.00 0.00 0.00 89 1008.7
20260905015519 66 0 0.0 0.0 0.00 0.00 0.00 90 1008.7
20260905015020 66 0 0.0 0.0 0.00 0.00 0.00 89 1008.8
20260905014543 66 0 0.0 0.0 0.00 0.00 0.00 89 1008.9
20260905014019 66 0 0.0 0.0 0.00 0.00 0.00 89 1009.0
20260905013518 67 0 0.0 0.0 0.00 0.00 0.00 88 1009.0
20260905013044 67 0 0.0 1.0 0.00 0.00 0.00 88 1008.9
20260905012524 67 0 0.0 1.0 0.00 0.00 0.00 87 1008.9
20260905012018 67 0 0.0 2.0 0.00 0.00 0.00 87 1008.8
20260905011547 68 115 0.0 2.0 0.00 0.00 0.00 86 1008.7
20260905011024 68 0 0.0 1.0 0.00 0.00 0.00 86 1008.8
20260905010524 68 0 0.0 1.0 0.00 0.00 0.00 85 1008.8
20260905010049 68 0 0.0 1.0 0.00 0.00 0.00 85 1008.8
20260905005518 69 0 0.0 0.0 0.00 0.00 0.00 84 1008.7
20260905005023 69 0 0.0 0.0 0.00 0.00 0.00 83 1008.8
20260905004543 70 0 0.0 0.0 0.00 0.00 0.00 82 1008.8
20260905004019 70 0 0.0 0.0 0.00 0.00 0.00 82 1008.8
20260905003518 70 0 0.0 1.0 0.00 0.00 0.00 81 1008.8
20260905003040 71 0 0.0 1.0 0.00 0.00 0.00 80 1008.7
20260905002523 71 0 0.0 0.0 0.00 0.00 0.00 78 1008.7
20260905002023 71 0 0.0 0.0 0.00 0.00 0.00 78 1008.7
20260905001554 71 0 0.0 1.0 0.00 0.00 0.00 77 1008.8
20260905001021 71 0 0.0 1.0 0.00 0.00 0.00 77 1008.6
20260905000519 71 231 0.0 1.0 0.00 0.00 0.00 76 1008.6
20260905000042 72 0 0.0 1.0 0.00 0.00 0.00 75 1008.7
20260904235521 72 0 0.0 1.0 0.00 0.00 0.00 75 1008.6
20260904235019 73 0 0.0 0.0 0.00 0.00 0.00 74 1008.5
20260904234541 73 0 0.0 0.0 0.00 0.00 0.00 73 1008.5
20260904234021 74 0 0.0 0.0 0.00 0.00 0.00 71 1008.2
20260904233520 74 0 0.0 0.0 0.00 0.00 0.00 70 1008.1
20260904233047 74 0 0.0 0.0 0.00 0.00 0.00 69 1008.2
20260904232524 75 0 0.0 0.0 0.00 0.00 0.00 69 1008.1
20260904232024 75 0 0.0 0.0 0.00 0.00 0.00 69 1008.0
20260904231544 76 0 0.0 0.0 0.00 0.00 0.00 68 1007.9
20260904231021 76 0 0.0 0.0 0.00 0.00 0.00 69 1007.9
20260904230519 76 0 0.0 0.0 0.00 0.00 0.00 68 1007.9
20260904225524 77 0 0.0 0.0 0.00 0.00 0.00 68 1007.8
20260904225024 77 0 0.0 1.0 0.00 0.00 0.00 67 1007.8
20260904224545 77 0 0.0 1.0 0.00 0.00 0.00 66 1007.9
20260904224024 78 230 0.0 0.0 0.00 0.00 0.00 66 1007.9
20260904223524 78 0 0.0 0.0 0.00 0.00 0.00 66 1007.9
20260904223050 78 0 0.0 0.0 0.00 0.00 0.00 65 1008.0
20260904222523 78 0 0.0 0.0 0.00 0.00 0.00 64 1007.9
20260904222023 79 0 0.0 0.0 0.00 0.00 0.00 63 1007.8
20260904221547 79 0 0.0 1.0 0.00 0.00 0.00 62 1007.8
20260904221023 79 0 0.0 1.0 0.00 0.00 0.00 63 1007.7
20260904220520 80 0 0.0 0.0 0.00 0.00 0.00 61 1007.8
20260904220046 80 0 0.0 2.0 0.00 0.00 0.00 61 1007.8
20260904215524 81 0 0.0 2.0 0.00 0.00 0.00 60 1007.9
20260904215024 81 0 0.0 2.0 0.00 0.00 0.00 59 1007.8
20260904214545 81 0 0.0 2.0 0.00 0.00 0.00 59 1007.7
20260904214024 81 229 0.0 1.0 0.00 0.00 0.00 58 1007.8
20260904213528 82 229 0.0 1.0 0.00 0.00 0.00 57 1007.7
20260904213046 82 274 0.0 3.0 0.00 0.00 0.00 57 1007.8
20260904212524 82 0 0.0 3.0 0.00 0.00 0.00 56 1007.8
20260904212027 82 354 1.0 2.0 0.00 0.00 0.00 56 1007.6
20260904211544 82 0 0.0 3.0 0.00 0.00 0.00 58 1007.6
20260904211021 81 0 0.0 3.0 0.00 0.00 0.00 57 1007.5
20260904210525 81 0 0.0 0.0 0.00 0.00 0.00 60 1007.6
20260904210045 81 0 0.0 0.0 0.00 0.00 0.00 63 1007.6
20260904205525 81 0 0.0 0.0 0.00 0.00 0.00 59 1007.6
20260904205026 81 0 0.0 0.0 0.00 0.00 0.00 60 1007.6
20260904204544 81 0 0.0 0.0 0.00 0.00 0.00 62 1007.6
20260904204025 81 0 0.0 0.0 0.00 0.00 0.00 59 1007.6
20260904203524 81 0 0.0 0.0 0.00 0.00 0.00 59 1007.8
20260904203043 81 0 0.0 1.0 0.00 0.00 0.00 60 1007.7
20260904202528 81 0 0.0 4.0 0.00 0.00 0.00 60 1007.7
20260904202024 81 0 1.0 4.0 0.00 0.00 0.00 59 1007.7
20260904201546 82 0 0.0 2.0 0.00 0.00 0.00 59 1007.7
20260904201115 83 18 0.0 2.0 0.00 0.00 0.00 58 1007.7
20260904200524 83 38 0.0 3.0 0.00 0.00 0.00 57 1007.7
20260904200054 84 39 0.0 3.0 0.00 0.00 0.00 56 1007.7
20260904195528 85 0 0.0 2.0 0.00 0.00 0.00 55 1007.6
20260904195024 85 198 0.0 3.0 0.00 0.00 0.00 55 1007.7
20260904194543 85 0 1.0 3.0 0.00 0.00 0.00 56 1007.6
20260904194018 85 298 0.0 6.0 0.00 0.00 0.00 57 1007.7
20260904193520 85 262 2.0 6.0 0.00 0.00 0.00 55 1007.6
20260904193043 85 219 1.0 3.0 0.00 0.00 0.00 58 1007.7
20260904192523 85 270 0.0 3.0 0.00 0.00 0.00 58 1007.6
20260904192025 86 41 1.0 3.0 0.00 0.00 0.00 57 1007.6
20260904191545 86 44 1.0 3.0 0.00 0.00 0.00 56 1007.6
20260904191024 85 330 0.0 4.0 0.00 0.00 0.00 58 1007.6
20260904190524 85 283 0.0 4.0 0.00 0.00 0.00 58 1007.8
20260904190048 85 298 1.0 5.0 0.00 0.00 0.00 56 1007.8
20260904185528 86 256 1.0 5.0 0.00 0.00 0.00 56 1007.6
20260904185023 85 246 1.0 3.0 0.00 0.00 0.00 58 1007.6
20260904184542 85 36 1.0 3.0 0.00 0.00 0.00 56 1007.7
20260904184023 85 299 0.0 3.0 0.00 0.00 0.00 58 1007.7
20260904183524 84 340 1.0 9.0 0.00 0.00 0.00 59 1007.7
20260904183104 83 347 0.0 9.0 0.00 0.00 0.00 60 1007.7